Weather History for Miles City, MT

Change the Weather History Date:

Wednesday, July 23, 2014

  Actual Average Record
Temperature  
Mean Temperature 78 °F 75 °F  
Max Temperature 95 °F 90 °F 110 °F (2007)
Min Temperature 61 °F 61 °F 49 °F (1950)
Degree Days  
Heating Degree Days 0 0  
Month to date heating degree days 1 10  
Since 1 June heating degree days 95 99  
Since 1 July heating degree days 1 10  
Cooling Degree Days 13 10  
Month to date cooling degree days 211 203  
Year to date cooling degree days 282 330  
Since 1 June cooling degree days 248 310  
Growing Degree Days 28 (Base 50)    
Moisture  
Dew Point 62 °F    
Average Humidity 67    
Maximum Humidity 100    
Minimum Humidity 34    
Precipitation  
Precipitation 0.00 in 0.05 in 1.08 in (1953)
Month to date precipitation 0.09 1.26  
Year to date precipitation 9.77 8.47  
Sea Level Pressure  
Sea Level Pressure 29.99 in    
Wind  
Wind Speed 10 mph (East)    
Max Wind Speed 23 mph    
Max Gust Speed 29 mph    
Visibility 10 miles    
Events      
T = Trace of Precipitation, MM = Missing Value Source: NWS Daily Summary

Daily Weather History Graph

Daily Weather History Graph

Search for Another Location

Airport:

Trip Planner

Search our weather history database for the weather conditions in past years. The results will help you decide how hot, cold, wet, or windy it might be!

Date:

Astronomy

Jul. 23, 2014 Rise Set
Actual Time 5:34 AM MDT 8:45 PM MDT
Civil Twilight 4:58 AM MDT 9:21 PM MDT
Nautical Twilight 4:10 AM MDT 10:08 PM MDT
Astronomical Twilight 3:12 AM MDT 11:05 PM MDT
Moon 2:56 AM MDT (7/23) 6:14 PM MDT (7/23)
Length of Visible Light 16h 23m
Length of Day
15h 10m
Waning Crescent, 9% of the Moon is Illuminated
Jul 23
Waning Crescent
Jul 26
New
Aug 3
First Quarter
Aug 10
Full
Aug 17
Last Quarter

Hourly Weather History & Observations

Time (MDT) Temp. Heat Index Dew Point Humidity Pressure Visibility Wind Dir Wind Speed Gust Speed Precip Events Conditions
12:53 AM 69.1 °F - 61.0 °F 75% 30.14 in 10.0 mi SSE 5.8 mph - N/A   Clear
1:53 AM 66.9 °F - 61.0 °F 81% 30.14 in 10.0 mi ESE 4.6 mph - N/A   Clear
2:53 AM 63.0 °F - 60.1 °F 90% 30.14 in 10.0 mi NE 4.6 mph - N/A   Clear
3:53 AM 63.0 °F - 61.0 °F 93% 30.15 in 10.0 mi NE 5.8 mph - N/A   Clear
4:53 AM 62.1 °F - 60.1 °F 93% 30.14 in 9.0 mi NNE 6.9 mph - N/A   Clear
5:53 AM 61.0 °F - 60.1 °F 97% 30.14 in 9.0 mi NNE 5.8 mph - N/A   Clear
6:53 AM 63.0 °F - 61.0 °F 93% 30.15 in 10.0 mi Calm Calm - N/A   Clear
7:53 AM 68.0 °F - 62.1 °F 81% 30.14 in 10.0 mi NE 4.6 mph - N/A   Clear
8:53 AM 73.0 °F - 62.1 °F 68% 30.12 in 10.0 mi ESE 5.8 mph - N/A   Clear
9:53 AM 80.1 °F 81.5 °F 63.0 °F 56% 30.07 in 10.0 mi East 9.2 mph - N/A   Clear
10:53 AM 84.0 °F 84.5 °F 62.1 °F 47% 30.05 in 10.0 mi SSE 9.2 mph - N/A   Clear
11:53 AM 87.1 °F 87.8 °F 63.0 °F 44% 30.02 in 10.0 mi East 11.5 mph - N/A   Clear
12:53 PM 89.1 °F 90.0 °F 63.0 °F 42% 30.00 in 10.0 mi ESE 13.8 mph 21.9 mph N/A   Clear
1:53 PM 91.9 °F 93.3 °F 64.0 °F 39% 29.97 in 10.0 mi SE 10.4 mph 20.7 mph N/A   Clear
2:53 PM 93.0 °F 93.8 °F 62.1 °F 36% 29.91 in 10.0 mi SE 21.9 mph 28.8 mph N/A   Clear
3:53 PM 95.0 °F 96.0 °F 63.0 °F 34% 29.91 in 10.0 mi ESE 19.6 mph 25.3 mph N/A   Clear
4:53 PM 93.9 °F 95.6 °F 64.0 °F 37% 29.88 in 10.0 mi ESE 15.0 mph - N/A   Clear
5:53 PM 93.0 °F 94.6 °F 64.0 °F 38% 29.85 in 10.0 mi East 15.0 mph - N/A   Clear
6:53 PM 91.9 °F 94.1 °F 64.9 °F 41% 29.83 in 10.0 mi NE 16.1 mph - N/A   Clear
7:53 PM 90.0 °F 91.3 °F 64.0 °F 42% 29.81 in 10.0 mi East 11.5 mph - N/A   Clear
8:53 PM 88.0 °F 88.4 °F 62.1 °F 42% 29.80 in 10.0 mi East 10.4 mph - N/A   Clear
9:53 PM 84.9 °F 84.8 °F 60.1 °F 43% 29.79 in 10.0 mi ESE 11.5 mph 21.9 mph N/A   Clear
10:53 PM 82.9 °F 83.3 °F 61.0 °F 47% 29.76 in 10.0 mi SE 15.0 mph 25.3 mph N/A   Clear
11:53 PM 80.1 °F 81.1 °F 61.0 °F 52% 29.75 in 10.0 mi ESE 6.9 mph - N/A   Clear